Weather History for Rochester, NY

Change the Weather History Date:

Tuesday, September 10, 2013

  Actual Average Record
Temperature  
Mean Temperature 79 °F 64 °F  
Max Temperature 91 °F 74 °F 94 °F (1897)
Min Temperature 67 °F 54 °F 37 °F (1975)
Degree Days  
Heating Degree Days 0 3  
Month to date heating degree days 34 24  
Since 1 July heating degree days 52 58  
Cooling Degree Days 14 2  
Month to date cooling degree days 33 27  
Year to date cooling degree days 624 511  
Growing Degree Days 28 (Base 50)    
Moisture  
Dew Point 69 °F    
Average Humidity 71    
Maximum Humidity 85    
Minimum Humidity 56    
Precipitation  
Precipitation 0.22 in 0.11 in 0.77 in (1946)
Month to date precipitation 0.89 1.09  
Year to date precipitation 26.10 23.69  
Snow  
Snow 0.00 in 0.00 in 0.00 in ()
Month to date snowfall 0.0 0.0  
Since 1 July snowfall 0.0 0.0  
Since 1 September snowfall 0.0 0.0  
Snow Depth 0.00 in    
Sea Level Pressure  
Sea Level Pressure 29.96 in    
Wind  
Wind Speed 13 mph (SW)    
Max Wind Speed 24 mph    
Max Gust Speed 32 mph    
Visibility 9 miles    
Events Rain , Thunderstorm    
T = Trace of Precipitation, MM = Missing Value Source: NWS Daily Summary

Daily Weather History Graph

Daily Weather History Graph

Search for Another Location

Airport:

Trip Planner

Search our weather history database for the weather conditions in past years. The results will help you decide how hot, cold, wet, or windy it might be!

Date:

Astronomy

Sep. 10, 2013 Rise Set
Actual Time 6:45 AM EDT 7:29 PM EDT
Civil Twilight 6:16 AM EDT 7:57 PM EDT
Nautical Twilight 5:42 AM EDT 8:31 PM EDT
Astronomical Twilight 5:06 AM EDT 9:07 PM EDT
Moon 12:17 PM EDT (9/10) 10:21 PM EDT (9/10)
Length of Visible Light 13h 41m
Length of Day
12h 44m
Waxing Crescent, 28% of the Moon is Illuminated
Sep 10
Waxing Crescent
Sep 12
First Quarter
Sep 19
Full
Sep 26
Last Quarter
Oct 4
New

Hourly Weather History & Observations

Time (EDT) Temp. Heat Index Dew Point Humidity Pressure Visibility Wind Dir Wind Speed Gust Speed Precip Events Conditions
12:54 AM 66.9 °F - 60.1 °F 79% 29.99 in 10.0 mi SSW 12.7 mph 19.6 mph N/A   Mostly Cloudy
1:54 AM 68.0 °F - 60.1 °F 76% 29.99 in 10.0 mi SSW 11.5 mph 19.6 mph N/A   Overcast
2:54 AM 68.0 °F - 61.0 °F 78% 29.98 in 10.0 mi SW 10.4 mph - 0.00 in   Overcast
3:54 AM 69.1 °F - 62.1 °F 78% 29.95 in 10.0 mi SW 12.7 mph - N/A   Overcast
4:54 AM 70.0 °F - 62.1 °F 76% 29.94 in 10.0 mi SSW 13.8 mph - N/A   Overcast
5:54 AM 70.0 °F - 63.0 °F 78% 29.94 in 10.0 mi SW 13.8 mph - 0.00 in   Overcast
6:17 AM 69.8 °F - 64.4 °F 83% 29.92 in 9.0 mi SSW 16.1 mph - 0.00 in Rain , Thunderstorm Light Thunderstorms and Rain
6:54 AM 69.1 °F - 66.0 °F 90% 29.93 in 4.0 mi SSW 19.6 mph 27.6 mph 0.17 in Rain , Thunderstorm Thunderstorms and Rain
7:32 AM 71.6 °F - 68.0 °F 88% 29.92 in 6.0 mi SW 11.5 mph - 0.05 in   Overcast
7:54 AM 72.0 °F - 68.0 °F 87% 29.97 in 6.0 mi NNW 9.2 mph 17.3 mph 0.05 in   Overcast
8:54 AM 73.0 °F - 68.0 °F 84% 29.97 in 6.0 mi SSW 6.9 mph - N/A   Overcast
9:54 AM 75.0 °F - 69.1 °F 82% 29.97 in 9.0 mi SSW 10.4 mph - N/A   Overcast
10:54 AM 79.0 °F - 71.1 °F 77% 29.98 in 10.0 mi SW 6.9 mph - N/A   Overcast
11:54 AM 82.0 °F 87.4 °F 73.0 °F 74% 29.96 in 9.0 mi SSW 10.4 mph - N/A   Mostly Cloudy
12:54 PM 88.0 °F 95.6 °F 73.0 °F 61% 29.94 in 10.0 mi WSW 23.0 mph 27.6 mph N/A   Scattered Clouds
1:54 PM 89.1 °F 97.0 °F 73.0 °F 59% 29.94 in 10.0 mi WSW 20.7 mph - N/A   Partly Cloudy
2:54 PM 90.0 °F 99.0 °F 73.9 °F 59% 29.94 in 10.0 mi WSW 18.4 mph 25.3 mph N/A   Scattered Clouds
3:54 PM 91.0 °F 99.3 °F 73.0 °F 55% 29.94 in 10.0 mi WSW 17.3 mph 23.0 mph N/A   Partly Cloudy
4:54 PM 90.0 °F 97.9 °F 73.0 °F 57% 29.94 in 10.0 mi WSW 15.0 mph - N/A   Partly Cloudy
5:54 PM 90.0 °F 96.9 °F 72.0 °F 55% 29.95 in 10.0 mi WSW 11.5 mph - N/A   Clear
6:54 PM 87.1 °F 94.5 °F 73.0 °F 63% 29.95 in 10.0 mi WSW 11.5 mph - N/A   Clear
7:54 PM 84.0 °F 89.6 °F 72.0 °F 67% 29.96 in 10.0 mi WSW 12.7 mph - N/A   Clear
8:54 PM 82.9 °F 87.0 °F 70.0 °F 65% 29.99 in 10.0 mi SW 12.7 mph - N/A   Clear
9:54 PM 80.1 °F 83.6 °F 71.1 °F 74% 30.00 in 9.0 mi SW 6.9 mph - N/A   Clear
10:54 PM 81.0 °F 85.8 °F 73.0 °F 77% 30.00 in 9.0 mi SSW 9.2 mph - N/A   Clear
11:54 PM 79.0 °F - 73.0 °F 82% 30.00 in 8.0 mi SW 8.1 mph - N/A   Clear